User: anonymous   Login
Location: *
(2.5500°S, 65.9667°W)
Time: 07:39:53
(UTC+00:00)
Language:

GPS 2-04 Rocket1 - Orbit

View from above orbital plane
View from above orbital plane
View from above satellite
View from above satellite

Ground track
Ground track

The orbit data is extracted from the following two-line orbital elements,

1 20303U 89085B   22016.90664569  .00010366  00000-0  29807-3 0  9999
2 20303  35.6412 328.3625 0089631 291.4211  67.6975 15.31075290757188
Epoch (UTC): 16 January 2022 21:45:34
Eccentricity: 0.0089631
inclination: 35.6412°
perigee height: 411 km
apogee height: 534 km
right ascension of ascending node: 328.3625°
argument of perigee: 291.4211°
revolutions per day: 15.31075290
mean anomaly at epoch: 67.6975°
orbit number at epoch: 75718

The dashed part of the orbit path shows where the satellite is in the earth's shadow,  

DLR